ARIANE 42P DEB, 44512

Orbit data source: Space-Track

ARIANE 42P DEB, 44512 is space debris in LEO originally from a launch on Mon, 10 Aug 1992 UTC launched from the French Guiana (FRGUI). Debris objects in space refer to the collection of defunct objects orbiting the Earth. Examples of debris include non-operational satellites, rocket bodies, and fragments generated from explosions, collisions, or faulty payload assembly.

Loading next visibility...
Identifier
44512, 1992-052K
Orbit
LEO
Country
Flag of FRFR
Related business
Manufacturer
ArianeGroup
Mission
Spacecraft
Bus & Motor
Unknown
Mass
Unknown
Launch date (UTC)
1992-08-10 (34 years ago)
Launch vehicle
Unknown
Launch site
French Guiana (FRGUI)
Object type
Payload
Rocket body
Debris
Shape & HBR
Unknown shape, 0.1 m
Radar Cross Section
Small (<0.1 m²)

Expand to show TLE details & history
Last TLE update: 1 day ago

TLE from 1 day ago
0 ARIANE 42P DEB
1 44512U 92052K   26093.20805412  .00001898  00000-0  66957-2 0  9997
2 44512  65.9138  23.7716 0267459 353.3740   6.3767 12.86952386310737
Epoch: 2026-04-03T04:59Z
TLE epoch observation values (Epoch: 2026-04-03T04:59:35.875Z)
Latitude
-0.00002°
Longitude
117.32663°
Altitude
1,111.152 km
Speed
7.394 km/s
True Right ascension
01h 35m 05s
True Declination
0° 00' 00"
Sunlit
Object was in daylight at epoch
Visualization orbit readout
Latitude
Unknown
Longitude
Unknown
Altitude
Unknown
Speed
Unknown
Apparent Right ascension
Unknown
Apparent Declination
Unknown
Sunlit
N/A
Visualization observer readout
Local Sidereal Time
19:10:11
Azimuth
Unknown
Elevation
Unknown
Doppler factor
Unknown
Orbital elements
Apogee altitude
1,517.899 km
Perigee altitude
1,106.529 km
Semi-major axis
7,690.351 km
Eccentricity
0.02675
Inclination
65.9138°
RAAN
23.7716°
Arg. of periapsis
353.374°
True anomaly
6.72878°
Mean anomaly
6.3767°
Eccentric anomaly
6.55155°
Mean motion
3.21828 °/min
Orbital period
111.86 mins
BSTAR
0.0066957
Loading maneuver chart data...
Computing Atmospheric mass density...
Loading historical data...
Loading historical data...
Loading historical data...
Loading historical data...
Loading historical data...
Loading historical data...
Loading historical data...

Documentation

Showing up to 5 results
|